Regional Weather Roundup
Issued by NWS Northern Indiana

Home | Current Version | Previous Version | Text Only | Print | Product List | Glossary Off
Versions: 1 2 3 4 5 6 7 8 9 10 11 12 13 14 15 16 17 18 19 20 21 22 23 24 25 26 27 28 29 30 31 32 33 34 35 36 37 38 39 40 41 42 43 44 45 46 47 48 49 50

000
ASUS43 KIWX 221400
RWRIWX

KIWX WEATHER ROUNDUP
NATIONAL WEATHER SERVICE NORTHERN INDIANA
1000 AM EDT TUE JUL 22 2014

NOTE: "FAIR" INDICATES FEW OR NO CLOUDS BELOW 12,000 FEET WITH NO
SIGNIFICANT WEATHER AND/OR OBSTRUCTIONS TO VISIBILITY.

* THESE STATIONS ARE NOT UNDER NWS QUALITY CONTROL. THEY ALSO MAY NOT
  REPORT WEATHER SUCH AS PRECIPITATION OR FOG.

INZ001>027-221500-
NORTHERN INDIANA

CITY           SKY/WX    TMP DP  RH WIND       PRES   REMARKS
GARY*          SUNNY     77  66  69 S9        30.05F
VALPARAISO     SUNNY     75  66  73 S10       30.07F
SOUTH BEND     SUNNY     76  65  68 S13       30.08F
GOSHEN         SUNNY     77  66  68 S9        30.09F
ANGOLA*        SUNNY     79  66  65 SW6       30.11F
FORT WAYNE     SUNNY     79  65  62 SW6       30.13S
PERU/GRISSOM   SUNNY     78  70  75 SW8       30.11F

$$
INZ028>050-221500-
CENTRAL INDIANA

CITY           SKY/WX    TMP DP  RH WIND       PRES   REMARKS
LAFAYETTE      SUNNY     75  68  78 S3        30.10F
KOKOMO*        SUNNY     79  68  69 S5        30.12F
MUNCIE*        SUNNY     80  67  64 SW6       30.13F
INDIANAPOLIS   SUNNY     78  66  66 SW3       30.12S

$$
MIZ043>046-050>051-056>058-064>065-071>073-077>080-221500-
SOUTHWEST LOWER MICHIGAN

CITY           SKY/WX    TMP DP  RH WIND       PRES   REMARKS
BATTLE CREEK   SUNNY     77  65  66 S10       30.09F
BENTON HARBOR  SUNNY     76  66  71 S13       30.05F
COLDWATER*     SUNNY     78  65  63 SW7       30.10F
HILLSDALE*     SUNNY     78  66  68 S5        30.12F
HOLLAND        SUNNY     78  67  68 S10       30.04F
GRAND RAPIDS   MOSUNNY   78  68  71 S12       30.05F
KALAMAZOO      SUNNY     77  65  66 S9        30.08F
STURGIS*       SUNNY     75  68  78 SW8       30.09F
THREE RIVERS*  FAIR      75  68  78 SW8       30.09F

$$
OHZ001>008-015>018-024>025-221500-
NORTHWEST OHIO

CITY           SKY/WX    TMP DP  RH WIND       PRES   REMARKS
DEFIANCE       SUNNY     79  65  62 SW3       30.12F
FINDLAY        SUNNY     79  69  71 S6        30.12S
TOLEDO EXPRESS SUNNY     79  64  60 W6        30.11F
TOLEDO METCALF SUNNY     79  65  62 SW5       30.12F
LIMA           MOSUNNY   80  68  66 S8        30.13S

$$
&&


USA.gov is the U.S. government's official web portal to all federal, state and local government web resources and services.